Location: Miss�
(46.9484°N, 0.1922°W)
Time: 03:34:35
(UTC+00:00)

CZ-4 R/B - Pass Details

Date: 02 March 2021
Orbit: 532 x 597 km, 97.7° (Epoch: 16 April)

Event Time Altitude Azimuth Distance (km) Brightness Sun altitude
Rises 19:38:20 0° 206° (SSW) 2,667 5.0 -19.6°
Reaches altitude 10° 19:41:02 10° 227° (SW) 1,787 4.4 -20.0°
Maximum altitude 19:43:36 17° 269° (W) 1,411 4.3 -20.4°
Drops below altitude 10° 19:46:11 10° 310° (NW) 1,811 4.8 -20.9°
Sets 19:48:57 0° 331° (NNW) 2,721 5.5 -21.3°
